| time (UTC) | temp F | wind direction | speed MPH | gust MPH | rain 1hr in | rain 24hr in | rain mn in | humidity % | barometer mb |
| 20260505070026 | 46 | 252 | 8.0 | 10.0 | 0.00 | 0.00 | 0.00 | 56 | 1006.5 |
| 20260505064523 | 46 | 264 | 7.0 | 12.0 | 0.00 | 0.00 | 0.00 | 56 | 1006.4 |
| 20260505063019 | 47 | 269 | 7.0 | 11.0 | 0.00 | 0.00 | 0.00 | 53 | 1006.5 |
| 20260505061516 | 47 | 262 | 6.0 | 11.0 | 0.00 | 0.00 | 0.00 | 56 | 1006.4 |
| 20260505060015 | 47 | 269 | 3.0 | 9.0 | 0.00 | 0.00 | 0.00 | 56 | 1006.4 |
| 20260505054512 | 47 | 269 | 2.0 | 11.0 | 0.00 | 0.00 | 0.00 | 55 | 1006.3 |
| 20260505053009 | 47 | 275 | 7.0 | 11.0 | 0.00 | 0.00 | 0.00 | 55 | 1006.2 |
| 20260505051522 | 48 | 274 | 6.0 | 12.0 | 0.00 | 0.00 | 0.00 | 55 | 1006.3 |
| 20260505041606 | 49 | 272 | 11.0 | 17.0 | 0.00 | 0.00 | 0.00 | 56 | 1006.4 |
| 20260505040104 | 50 | 288 | 11.0 | 16.0 | 0.00 | 0.00 | 0.00 | 55 | 1006.3 |
| 20260505034557 | 50 | 271 | 11.0 | 18.0 | 0.00 | 0.00 | 0.00 | 54 | 1006.2 |
| 20260505033056 | 50 | 277 | 10.0 | 17.0 | 0.00 | 0.00 | 0.00 | 53 | 1006.1 |
| 20260505031558 | 51 | 271 | 13.0 | 20.0 | 0.00 | 0.00 | 0.00 | 52 | 1006.0 |
| 20260505030053 | 51 | 265 | 14.0 | 20.0 | 0.00 | 0.00 | 0.00 | 51 | 1006.0 |
| 20260505024553 | 52 | 278 | 14.0 | 22.0 | 0.00 | 0.00 | 0.00 | 52 | 1005.7 |
| 20260505023046 | 52 | 277 | 14.0 | 19.0 | 0.00 | 0.00 | 0.00 | 53 | 1005.3 |
| 20260505021549 | 52 | 270 | 15.0 | 24.0 | 0.00 | 0.00 | 0.00 | 52 | 1005.0 |
| 20260505020041 | 53 | 268 | 14.0 | 23.0 | 0.00 | 0.00 | 0.00 | 52 | 1004.6 |
| 20260505014538 | 53 | 279 | 17.0 | 24.0 | 0.00 | 0.00 | 0.00 | 51 | 1004.2 |
| 20260505013035 | 53 | 273 | 15.0 | 21.0 | 0.00 | 0.00 | 0.00 | 53 | 1004.0 |
| 20260505011534 | 54 | 274 | 15.0 | 29.0 | 0.00 | 0.00 | 0.00 | 53 | 1003.8 |
| 20260505010033 | 55 | 257 | 21.0 | 27.0 | 0.00 | 0.00 | 0.00 | 52 | 1003.5 |
| 20260505004530 | 57 | 269 | 18.0 | 24.0 | 0.00 | 0.00 | 0.00 | 48 | 1003.0 |
| 20260505003030 | 57 | 248 | 16.0 | 27.0 | 0.00 | 0.00 | 0.00 | 48 | 1002.8 |
| 20260505001529 | 58 | 264 | 17.0 | 24.0 | 0.00 | 0.00 | 0.00 | 45 | 1002.3 |
| 20260505000030 | 58 | 250 | 20.0 | 26.0 | 0.00 | 0.00 | 0.00 | 46 | 1002.3 |
| 20260504234533 | 58 | 264 | 22.0 | 29.0 | 0.00 | 0.00 | 0.00 | 42 | 1002.3 |
| 20260504233027 | 59 | 235 | 19.0 | 24.0 | 0.00 | 0.00 | 0.00 | 42 | 1002.4 |
| 20260504231526 | 59 | 242 | 16.0 | 27.0 | 0.00 | 0.00 | 0.00 | 43 | 1002.4 |
| 20260504230026 | 60 | 261 | 22.0 | 33.0 | 0.00 | 0.00 | 0.00 | 36 | 1002.2 |
| 20260504224526 | 61 | 280 | 21.0 | 27.0 | 0.00 | 0.00 | 0.00 | 41 | 1002.0 |
| 20260504223024 | 61 | 246 | 20.0 | 27.0 | 0.00 | 0.00 | 0.00 | 41 | 1001.8 |
| 20260504221523 | 62 | 251 | 17.0 | 23.0 | 0.00 | 0.00 | 0.00 | 39 | 1001.4 |
| 20260504220023 | 62 | 252 | 17.0 | 25.0 | 0.00 | 0.00 | 0.00 | 41 | 1001.2 |
| 20260504214523 | 63 | 282 | 20.0 | 24.0 | 0.00 | 0.00 | 0.00 | 38 | 1000.7 |
| 20260504213021 | 64 | 265 | 20.0 | 26.0 | 0.00 | 0.00 | 0.00 | 37 | 1000.5 |
| 20260504211520 | 64 | 253 | 18.0 | 28.0 | 0.00 | 0.00 | 0.00 | 38 | 1000.5 |
| 20260504210022 | 65 | 248 | 17.0 | 29.0 | 0.00 | 0.00 | 0.00 | 40 | 1000.4 |
| 20260504204519 | 65 | 290 | 12.0 | 26.0 | 0.00 | 0.00 | 0.00 | 41 | 1000.4 |
| 20260504203024 | 65 | 292 | 17.0 | 24.0 | 0.00 | 0.00 | 0.00 | 39 | 1000.3 |
| 20260504201518 | 66 | 267 | 18.0 | 27.0 | 0.00 | 0.00 | 0.00 | 37 | 1000.3 |
| 20260504200017 | 67 | 248 | 15.0 | 22.0 | 0.00 | 0.00 | 0.00 | 40 | 1000.1 |
| 20260504194517 | 67 | 269 | 18.0 | 24.0 | 0.00 | 0.00 | 0.00 | 38 | 999.9 |
| 20260504193018 | 67 | 259 | 19.0 | 25.0 | 0.00 | 0.00 | 0.00 | 39 | 999.8 |
| 20260504191523 | 67 | 289 | 15.0 | 23.0 | 0.00 | 0.00 | 0.00 | 38 | 999.7 |
| 20260504190014 | 67 | 250 | 20.0 | 27.0 | 0.00 | 0.00 | 0.00 | 38 | 999.7 |
| 20260504184514 | 67 | 277 | 10.0 | 24.0 | 0.00 | 0.00 | 0.00 | 39 | 999.6 |
| 20260504183014 | 67 | 302 | 13.0 | 22.0 | 0.00 | 0.00 | 0.00 | 39 | 999.3 |
| 20260504181513 | 68 | 259 | 14.0 | 21.0 | 0.00 | 0.00 | 0.00 | 37 | 999.2 |
| 20260504180012 | 67 | 256 | 16.0 | 23.0 | 0.00 | 0.00 | 0.00 | 39 | 999.0 |
| 20260504174512 | 67 | 240 | 13.0 | 18.0 | 0.00 | 0.00 | 0.00 | 42 | 998.9 |
| 20260504173010 | 67 | 257 | 11.0 | 16.0 | 0.00 | 0.00 | 0.00 | 45 | 998.8 |
| 20260504171510 | 68 | 267 | 10.0 | 21.0 | 0.00 | 0.00 | 0.00 | 44 | 998.8 |
| 20260504081554 | 49 | 170 | 0.0 | 4.0 | 0.00 | 0.00 | 0.00 | 61 | 1000.9 |